contact:dominique.lefevre@mio.osupytheas.fr, maurice.libes@osupytheas.fr, didier.mallarino@osupytheas.fr
Project:EMSO http://www.emso-fr.org/EMSO-France
Depth: 2436.0 m
Title:EMSO Ligure Ouest : Data MII capteur AQUADOPP
Date,Latitude,Longitude,X_East,Y_North,Z_Up,Amplitude_X,Amplitude_Y,Amplitude_Z,Batterie,SoundSpeed,Heading,Pitch,Roll,Pressure,TIS,Speed,Direction
, degrees North, degrees East, m.s-1, m.s-1,m.s-1, 1, 1, 1, Volt, m.s-1, degree, degree, degree, dbar, degree_C, m.s-1, degree
2020-10-07T00:04:03,42.805,6.029,-0.015,-0.019,-0.018,101.0,106.0,99.0,13.4,1505.3,324.8,-0.8,1.8,2470.484,13.31,0.024,218.3
2020-10-07T00:07:03,42.805,6.029,0.02,-0.027,0.009,101.0,106.0,99.0,13.4,1505.3,324.3,-0.7,1.8,2470.446,13.32,0.033,143.5
2020-10-07T00:10:03,42.805,6.029,0.015,-0.007,0.006,101.0,106.0,102.0,13.4,1505.3,326.9,-0.7,1.9,2470.429,13.32,0.016,115.0
2020-10-07T00:13:03,42.805,6.029,0.016,-0.023,0.009,101.0,105.0,101.0,13.4,1505.3,326.1,-0.7,1.9,2470.475,13.33,0.028,145.2
2020-10-07T00:16:03,42.805,6.029,-0.023,-0.01,0.001,100.0,106.0,101.0,13.3,1505.3,324.3,-0.7,1.8,2470.437,13.33,0.025,246.5
2020-10-07T00:19:03,42.805,6.029,0.032,-0.008,0.028,102.0,105.0,101.0,13.4,1505.3,327.8,-0.7,1.8,2470.423,13.33,0.032,104.0
2020-10-07T00:22:03,42.805,6.029,-0.021,-0.01,-0.005,100.0,106.0,101.0,13.4,1505.3,323.5,-0.7,1.8,2470.429,13.33,0.023,244.5
2020-10-07T00:25:03,42.805,6.029,0.023,0.004,0.013,101.0,105.0,99.0,13.4,1505.3,324.5,-0.7,1.8,2470.414,13.33,0.023,80.1
2020-10-07T00:28:03,42.805,6.029,0.021,-0.014,0.016,101.0,106.0,100.0,13.4,1505.3,325.3,-0.7,1.8,2470.461,13.33,0.025,123.7
2020-10-07T00:31:03,42.805,6.029,-0.023,0.011,-0.015,101.0,105.0,101.0,13.3,1505.3,324.7,-0.7,1.8,2470.39,13.33,0.025,295.6
2020-10-07T00:34:03,42.805,6.029,-0.008,-0.001,0.01,101.0,105.0,101.0,13.4,1505.3,328.3,-0.7,1.9,2470.421,13.33,0.008,262.9
2020-10-07T00:37:03,42.805,6.029,0.013,-0.015,0.007,101.0,105.0,100.0,13.3,1505.3,326.2,-0.7,1.8,2470.435,13.33,0.019,139.1
2020-10-07T00:43:03,42.805,6.029,0.017,-0.004,0.005,102.0,104.0,100.0,13.3,1505.3,326.0,-0.7,1.8,2470.445,13.31,0.017,103.2
2020-10-07T00:46:03,42.805,6.029,-0.011,-0.006,-0.006,102.0,105.0,100.0,13.4,1505.3,324.8,-0.7,1.9,2470.435,13.32,0.012,241.4
2020-10-07T00:49:03,42.805,6.029,0.006,0.005,0.0,102.0,106.0,100.0,13.4,1505.3,324.5,-0.7,1.8,2470.438,13.32,0.007,50.2
2020-10-07T00:52:03,42.805,6.029,-0.016,-0.015,0.003,101.0,107.0,100.0,13.3,1505.3,325.9,-0.7,1.8,2470.418,13.33,0.021,226.9
2020-10-07T00:58:03,42.805,6.029,0.012,0.001,0.011,101.0,106.0,100.0,13.3,1505.3,324.7,-0.8,1.8,2470.46,13.31,0.012,85.2
2020-10-07T01:04:03,42.805,6.029,0.035,-0.015,0.039,103.0,109.0,101.0,13.4,1505.2,328.2,-0.7,1.9,2470.485,13.3,0.038,113.2
2020-10-07T01:07:04,42.805,6.029,0.018,-0.009,0.032,102.0,106.0,100.0,13.4,1505.3,325.6,-0.7,1.8,2470.462,13.31,0.02,116.6
2020-10-07T01:10:03,42.805,6.029,0.054,-0.013,0.038,101.0,107.0,100.0,13.4,1505.3,327.6,-0.7,1.8,2470.44,13.32,0.055,103.5
2020-10-07T01:13:03,42.805,6.029,0.007,0.002,0.027,102.0,106.0,100.0,13.3,1505.3,324.4,-0.7,1.8,2470.425,13.32,0.007,74.1
2020-10-07T01:16:03,42.805,6.029,0.026,-0.015,0.013,101.0,108.0,100.0,13.4,1505.3,326.7,-0.7,1.8,2470.404,13.32,0.03,120.0
2020-10-07T01:19:03,42.805,6.029,0.022,-0.018,0.014,100.0,106.0,101.0,13.4,1505.3,323.5,-0.7,1.8,2470.394,13.33,0.028,129.3
2020-10-07T01:22:03,42.805,6.029,0.009,-0.003,0.013,100.0,106.0,100.0,13.3,1505.3,326.8,-0.7,1.8,2470.433,13.33,0.009,108.4
2020-10-07T01:25:03,42.805,6.029,0.014,-0.017,0.011,102.0,105.0,100.0,13.4,1505.3,324.4,-0.7,1.8,2470.351,13.33,0.022,140.5
2020-10-07T01:28:03,42.805,6.029,0.006,-0.022,-0.012,102.0,107.0,99.0,13.3,1505.3,322.5,-0.7,1.8,2470.383,13.33,0.022,164.7
2020-10-07T01:31:03,42.805,6.029,0.016,-0.022,0.01,100.0,106.0,100.0,13.4,1505.3,326.6,-0.7,1.8,2470.373,13.33,0.027,144.0
2020-10-07T01:34:03,42.805,6.029,-0.005,-0.006,0.015,101.0,107.0,99.0,13.4,1505.3,324.4,-0.7,1.8,2470.363,13.33,0.007,219.8
2020-10-07T01:37:03,42.805,6.029,0.026,-0.003,0.023,102.0,106.0,100.0,13.3,1505.3,328.1,-0.7,1.8,2470.358,13.33,0.026,96.6
2020-10-07T01:40:03,42.805,6.029,0.034,-0.016,0.048,101.0,106.0,100.0,13.4,1505.3,326.0,-0.7,1.8,2470.353,13.33,0.037,115.2
2020-10-07T01:43:03,42.805,6.029,0.018,-0.023,0.0,102.0,105.0,101.0,13.4,1505.3,323.4,-0.7,1.8,2470.389,13.33,0.029,142.0
2020-10-07T01:46:03,42.805,6.029,-0.026,0.016,-0.005,101.0,106.0,100.0,13.3,1505.3,326.0,-0.7,1.8,2470.42,13.33,0.03,301.6
2020-10-07T01:49:03,42.805,6.029,-0.002,-0.004,0.02,101.0,106.0,101.0,13.4,1505.3,324.6,-0.7,1.8,2470.401,13.33,0.004,206.6
2020-10-07T01:52:03,42.805,6.029,-0.035,-0.01,-0.017,101.0,105.0,100.0,13.3,1505.3,326.8,-0.7,1.8,2470.355,13.33,0.036,254.1
2020-10-07T01:55:03,42.805,6.029,-0.003,0.012,0.024,102.0,105.0,101.0,13.4,1505.3,328.5,-0.7,1.8,2470.349,13.33,0.012,346.0
2020-10-07T01:58:03,42.805,6.029,-0.022,-0.004,-0.037,101.0,107.0,100.0,13.4,1505.3,323.5,-0.7,1.8,2470.359,13.33,0.022,259.7
2020-10-07T02:04:03,42.805,6.029,-0.021,-0.013,-0.022,100.0,106.0,101.0,13.3,1505.3,323.3,-0.7,1.8,2470.393,13.31,0.024,238.2
2020-10-07T02:07:03,42.805,6.029,-0.029,-0.022,-0.04,104.0,106.0,101.0,13.3,1505.3,323.6,-0.7,1.8,2470.394,13.31,0.036,232.8
2020-10-07T02:10:03,42.805,6.029,0.011,-0.041,-0.001,103.0,107.0,100.0,13.3,1505.3,327.2,-0.7,1.8,2470.361,13.32,0.042,165.0
2020-10-07T02:13:03,42.805,6.029,-0.015,-0.006,0.001,103.0,108.0,101.0,13.4,1505.3,323.4,-0.7,1.8,2470.373,13.32,0.016,248.2
2020-10-07T02:16:03,42.805,6.029,-0.007,-0.002,-0.003,102.0,108.0,101.0,13.3,1505.3,325.4,-0.7,1.8,2470.338,13.32,0.007,254.1
2020-10-07T02:19:03,42.805,6.029,-0.001,-0.004,0.0,101.0,108.0,100.0,13.3,1505.3,324.3,-0.7,1.9,2470.356,13.32,0.004,194.0
2020-10-07T02:22:03,42.805,6.029,0.029,-0.01,0.045,102.0,107.0,102.0,13.4,1505.3,325.8,-0.7,1.9,2470.375,13.33,0.03,109.0
2020-10-07T02:25:03,42.805,6.029,0.032,-0.008,0.031,102.0,107.0,101.0,13.4,1505.3,326.9,-0.7,1.8,2470.346,13.33,0.032,104.0
2020-10-07T02:28:03,42.805,6.029,0.051,-0.002,0.043,103.0,106.0,100.0,13.3,1505.3,327.4,-0.7,1.9,2470.33,13.33,0.051,92.2
2020-10-07T02:31:03,42.805,6.029,-0.005,0.005,0.02,103.0,107.0,100.0,13.3,1505.3,325.0,-0.7,1.8,2470.35,13.33,0.007,315.0
2020-10-07T02:34:03,42.805,6.029,0.034,-0.016,0.007,103.0,107.0,100.0,13.4,1505.3,324.6,-0.7,1.8,2470.348,13.33,0.037,115.2
2020-10-07T02:37:03,42.805,6.029,0.008,-0.002,0.011,102.0,107.0,100.0,13.4,1505.3,326.2,-0.7,1.8,2470.387,13.33,0.008,104.0
2020-10-07T02:40:03,42.805,6.029,0.035,-0.014,0.029,101.0,108.0,101.0,13.3,1505.3,325.8,-0.7,1.8,2470.373,13.33,0.037,111.8
2020-10-07T02:43:03,42.805,6.029,0.026,-0.017,0.031,102.0,107.0,101.0,13.4,1505.3,326.2,-0.7,1.8,2470.33,13.33,0.031,123.2
2020-10-07T02:46:03,42.805,6.029,0.003,0.006,0.014,101.0,110.0,101.0,13.3,1505.3,324.8,-0.7,1.8,2470.362,13.33,0.006,26.6
2020-10-07T02:49:03,42.805,6.029,0.023,-0.003,0.025,102.0,108.0,100.0,13.3,1505.3,325.1,-0.7,1.8,2470.311,13.33,0.023,97.4
2020-10-07T02:52:03,42.805,6.029,0.022,0.005,0.005,102.0,108.0,101.0,13.4,1505.3,326.6,-0.7,1.9,2470.36,13.33,0.022,77.2
2020-10-07T02:55:03,42.805,6.029,0.03,-0.003,0.034,101.0,109.0,101.0,13.3,1505.3,324.7,-0.7,1.8,2470.317,13.33,0.03,95.7
2020-10-07T02:58:03,42.805,6.029,0.014,0.007,0.041,103.0,108.0,101.0,13.3,1505.3,325.7,-0.7,1.8,2470.364,13.33,0.015,63.4
2020-10-07T03:04:03,42.805,6.029,0.03,-0.027,0.012,101.0,109.0,100.0,13.4,1505.3,328.0,-0.7,1.8,2470.39,13.31,0.04,132.0
2020-10-07T03:07:03,42.805,6.029,0.025,0.0,-0.001,102.0,109.0,100.0,13.4,1505.3,322.9,-0.7,1.8,2470.413,13.31,0.025,90.0
2020-10-07T03:10:03,42.805,6.029,0.005,-0.008,-0.011,103.0,109.0,101.0,13.4,1505.3,325.5,-0.7,1.9,2470.405,13.32,0.009,148.0
2020-10-07T03:13:03,42.805,6.029,0.044,0.005,0.052,103.0,109.0,100.0,13.3,1505.3,326.2,-0.7,1.8,2470.393,13.32,0.044,83.5
2020-10-07T03:16:03,42.805,6.029,0.074,0.0,0.04,103.0,108.0,100.0,13.3,1505.3,324.9,-0.7,1.8,2470.353,13.32,0.073,90.0
2020-10-07T03:19:03,42.805,6.029,0.082,0.012,0.051,102.0,107.0,99.0,13.4,1505.3,326.0,-0.7,1.8,2470.377,13.32,0.082,81.7
2020-10-07T03:22:03,42.805,6.029,0.053,0.013,0.045,103.0,106.0,101.0,13.3,1505.3,323.1,-0.7,1.9,2470.339,13.32,0.054,76.2
2020-10-07T03:25:03,42.805,6.029,0.056,-0.007,0.038,101.0,106.0,101.0,13.4,1505.3,326.3,-0.7,1.8,2470.341,13.32,0.056,97.1
2020-10-07T03:28:03,42.805,6.029,0.06,-0.01,0.061,102.0,105.0,100.0,13.3,1505.3,326.5,-0.7,1.8,2470.327,13.33,0.06,99.5
2020-10-07T03:31:03,42.805,6.029,0.041,-0.008,0.026,102.0,106.0,99.0,13.4,1505.3,327.1,-0.7,1.9,2470.395,13.33,0.041,101.0
2020-10-07T03:34:03,42.805,6.029,0.074,0.011,0.066,101.0,106.0,100.0,13.4,1505.3,322.9,-0.7,1.8,2470.361,13.33,0.074,81.5
2020-10-07T03:37:03,42.805,6.029,0.031,-0.006,0.013,101.0,107.0,101.0,13.4,1505.3,323.4,-0.7,1.9,2470.347,13.33,0.031,101.0
2020-10-07T03:40:03,42.805,6.029,0.019,-0.009,0.014,100.0,107.0,101.0,13.4,1505.3,326.3,-0.7,1.8,2470.353,13.33,0.021,115.3
2020-10-07T03:43:03,42.805,6.029,0.039,-0.009,0.015,102.0,107.0,101.0,13.4,1505.3,327.6,-0.7,1.8,2470.316,13.33,0.04,103.0
2020-10-07T03:46:03,42.805,6.029,0.076,0.029,0.05,102.0,107.0,100.0,13.4,1505.3,325.0,-0.7,1.8,2470.377,13.33,0.081,69.1
2020-10-07T03:49:03,42.805,6.029,0.044,-0.002,-0.002,102.0,110.0,101.0,13.4,1505.3,324.3,-0.7,1.8,2470.331,13.33,0.044,92.6
2020-10-07T03:52:03,42.805,6.029,0.053,-0.012,0.032,102.0,107.0,100.0,13.4,1505.3,328.0,-0.7,1.8,2470.341,13.33,0.054,102.8
2020-10-07T03:55:03,42.805,6.029,0.039,-0.001,0.037,102.0,108.0,100.0,13.3,1505.3,323.3,-0.7,1.8,2470.349,13.33,0.039,91.5
2020-10-07T03:58:03,42.805,6.029,0.072,0.002,0.039,102.0,108.0,101.0,13.4,1505.3,326.9,-0.7,1.8,2470.355,13.33,0.072,88.4
2020-10-07T04:04:03,42.805,6.029,0.025,-0.005,0.042,103.0,107.0,101.0,13.3,1505.3,326.8,-0.7,1.8,2470.391,13.31,0.025,101.3
2020-10-07T04:07:03,42.805,6.029,0.048,0.004,0.038,103.0,106.0,99.0,13.4,1505.3,326.1,-0.7,1.8,2470.336,13.31,0.048,85.2
2020-10-07T04:10:03,42.805,6.029,0.044,-0.001,0.016,103.0,107.0,101.0,13.4,1505.3,326.5,-0.7,1.8,2470.313,13.32,0.044,91.3
2020-10-07T04:13:03,42.805,6.029,0.055,0.008,0.037,102.0,108.0,100.0,13.4,1505.3,326.1,-0.7,1.9,2470.356,13.32,0.055,81.7
2020-10-07T04:16:03,42.805,6.029,0.041,0.004,0.067,102.0,108.0,100.0,13.3,1505.3,323.8,-0.7,1.8,2470.367,13.32,0.041,84.4
2020-10-07T04:19:03,42.805,6.029,0.027,0.009,0.01,102.0,108.0,100.0,13.3,1505.3,324.5,-0.7,1.8,2470.354,13.32,0.028,71.6
2020-10-07T04:22:03,42.805,6.029,0.064,-0.006,0.014,101.0,108.0,101.0,13.3,1505.3,324.7,-0.7,1.8,2470.31,13.33,0.064,95.4
2020-10-07T04:25:03,42.805,6.029,0.057,-0.005,0.043,101.0,109.0,101.0,13.3,1505.3,323.6,-0.7,1.8,2470.337,13.33,0.057,95.0
2020-10-07T04:28:03,42.805,6.029,0.057,-0.004,0.038,102.0,107.0,101.0,13.4,1505.3,324.2,-0.7,1.8,2470.341,13.33,0.057,94.0
2020-10-07T04:31:03,42.805,6.029,0.036,0.001,0.044,103.0,107.0,100.0,13.3,1505.3,323.8,-0.7,1.8,2470.347,13.33,0.036,88.4
2020-10-07T04:34:03,42.805,6.029,0.079,0.008,0.044,102.0,109.0,101.0,13.3,1505.3,327.8,-0.7,1.8,2470.327,13.33,0.079,84.2
2020-10-07T04:37:03,42.805,6.029,0.07,0.006,0.071,101.0,108.0,100.0,13.4,1505.3,326.5,-0.7,1.8,2470.378,13.33,0.07,85.1
2020-10-07T04:40:03,42.805,6.029,0.057,-0.001,0.04,102.0,108.0,100.0,13.4,1505.3,327.8,-0.7,1.8,2470.339,13.33,0.057,91.0
2020-10-07T04:43:03,42.805,6.029,0.042,-0.002,0.005,102.0,108.0,100.0,13.3,1505.3,324.6,-0.7,1.8,2470.325,13.33,0.042,92.7
2020-10-07T04:46:03,42.805,6.029,0.047,-0.012,0.028,102.0,109.0,100.0,13.3,1505.3,324.2,-0.7,1.8,2470.336,13.33,0.048,104.3
2020-10-07T04:49:03,42.805,6.029,0.029,0.008,0.021,102.0,108.0,101.0,13.3,1505.3,325.5,-0.7,1.8,2470.333,13.33,0.03,74.6
2020-10-07T04:52:03,42.805,6.029,0.066,-0.004,0.058,101.0,108.0,99.0,13.4,1505.3,325.2,-0.7,1.8,2470.358,13.33,0.066,93.5
2020-10-07T04:55:03,42.805,6.029,0.033,-0.012,0.039,102.0,108.0,100.0,13.4,1505.3,327.7,-0.7,1.8,2470.336,13.33,0.035,110.0
2020-10-07T04:58:03,42.805,6.029,0.033,-0.001,-0.002,102.0,109.0,100.0,13.4,1505.3,325.4,-0.7,1.8,2470.346,13.33,0.033,91.7
2020-10-07T05:04:03,42.805,6.029,0.026,0.014,0.024,102.0,108.0,100.0,13.4,1505.3,324.4,-0.7,1.8,2470.359,13.31,0.029,61.7
2020-10-07T05:07:03,42.805,6.029,0.047,0.003,0.041,102.0,107.0,102.0,13.4,1505.3,325.8,-0.7,1.8,2470.373,13.31,0.047,86.4
2020-10-07T05:10:03,42.805,6.029,0.028,0.007,0.041,103.0,108.0,101.0,13.4,1505.3,326.5,-0.7,1.8,2470.354,13.32,0.028,76.0
2020-10-07T05:13:03,42.805,6.029,0.054,-0.018,0.019,103.0,108.0,102.0,13.4,1505.3,325.6,-0.7,1.8,2470.395,13.32,0.056,108.4
2020-10-07T05:16:03,42.805,6.029,0.013,0.019,0.042,102.0,108.0,101.0,13.4,1505.3,326.6,-0.7,1.8,2470.316,13.32,0.023,34.4
2020-10-07T05:19:03,42.805,6.029,0.03,0.003,0.06,104.0,109.0,99.0,13.4,1505.3,325.1,-0.7,1.8,2470.338,13.33,0.03,84.3
2020-10-07T05:22:03,42.805,6.029,0.038,0.0,0.05,103.0,108.0,100.0,13.4,1505.3,328.4,-0.7,1.9,2470.353,13.33,0.038,90.0
2020-10-07T05:25:03,42.805,6.029,0.018,-0.01,0.011,103.0,108.0,100.0,13.3,1505.3,322.6,-0.7,1.8,2470.389,13.33,0.02,119.1
2020-10-07T05:28:03,42.805,6.029,0.038,-0.002,0.041,102.0,109.0,101.0,13.4,1505.3,326.0,-0.7,1.8,2470.34,13.33,0.038,93.0
2020-10-07T05:31:03,42.805,6.029,0.053,0.01,0.053,103.0,108.0,99.0,13.4,1505.3,325.0,-0.7,1.8,2470.365,13.33,0.053,79.3
2020-10-07T05:34:03,42.805,6.029,0.019,-0.016,0.032,102.0,106.0,99.0,13.4,1505.3,327.9,-0.7,1.8,2470.363,13.33,0.024,130.1
2020-10-07T05:37:03,42.805,6.029,0.0,-0.005,0.005,102.0,109.0,99.0,13.3,1505.3,328.4,-0.7,1.9,2470.352,13.33,0.005,180.0
2020-10-07T05:40:03,42.805,6.029,-0.015,-0.004,0.011,103.0,107.0,99.0,13.3,1505.3,328.0,-0.7,1.8,2470.352,13.33,0.015,255.1
2020-10-07T05:43:03,42.805,6.029,0.035,0.009,0.061,103.0,108.0,100.0,13.4,1505.3,325.9,-0.7,1.8,2470.288,13.33,0.036,75.6
2020-10-07T05:46:03,42.805,6.029,0.01,-0.009,0.006,102.0,107.0,100.0,13.4,1505.3,324.4,-0.7,1.8,2470.315,13.33,0.013,132.0
2020-10-07T05:49:03,42.805,6.029,0.014,0.0,0.056,102.0,108.0,100.0,13.4,1505.3,324.3,-0.7,1.8,2470.343,13.33,0.014,90.0
2020-10-07T05:52:03,42.805,6.029,-0.007,-0.001,0.003,101.0,107.0,99.0,13.4,1505.3,323.1,-0.7,1.8,2470.336,13.33,0.007,261.9
2020-10-07T05:55:03,42.805,6.029,0.02,0.009,0.043,101.0,107.0,100.0,13.3,1505.3,323.0,-0.7,1.8,2470.365,13.33,0.021,65.8
2020-10-07T05:58:03,42.805,6.029,0.004,0.002,0.031,104.0,107.0,100.0,13.4,1505.3,326.6,-0.7,1.8,2470.334,13.33,0.004,63.4
2020-10-07T06:04:03,42.805,6.029,-0.01,-0.015,-0.008,101.0,109.0,100.0,13.4,1505.3,324.2,-0.7,1.8,2470.41,13.31,0.018,213.7
2020-10-07T06:07:03,42.805,6.029,0.032,-0.008,0.041,102.0,108.0,99.0,13.4,1505.3,325.8,-0.7,1.8,2470.396,13.32,0.032,104.0
2020-10-07T06:10:03,42.805,6.029,0.005,0.0,0.011,103.0,108.0,99.0,13.3,1505.3,324.4,-0.7,1.8,2470.401,13.32,0.005,90.0
2020-10-07T06:13:03,42.805,6.029,0.031,0.007,0.021,101.0,110.0,100.0,13.4,1505.3,328.3,-0.7,1.8,2470.404,13.32,0.031,77.3
2020-10-07T06:16:03,42.805,6.029,0.024,-0.001,0.023,103.0,109.0,101.0,13.4,1505.3,323.3,-0.7,1.8,2470.382,13.32,0.024,92.4
2020-10-07T06:19:03,42.805,6.029,0.025,0.012,0.039,101.0,108.0,100.0,13.3,1505.3,326.1,-0.7,1.8,2470.394,13.33,0.027,64.4
2020-10-07T06:22:03,42.805,6.029,0.024,0.003,0.008,104.0,110.0,100.0,13.3,1505.3,325.2,-0.7,1.8,2470.41,13.33,0.024,82.9
2020-10-07T06:25:03,42.805,6.029,0.03,0.0,0.026,101.0,109.0,101.0,13.3,1505.3,328.0,-0.7,1.9,2470.372,13.33,0.03,90.0
2020-10-07T06:28:03,42.805,6.029,0.066,0.009,0.064,102.0,108.0,100.0,13.4,1505.3,324.1,-0.8,1.8,2470.415,13.33,0.066,82.2
2020-10-07T06:31:03,42.805,6.029,0.029,-0.004,0.054,102.0,109.0,100.0,13.4,1505.3,324.7,-0.7,1.8,2470.398,13.33,0.029,97.8
2020-10-07T06:34:03,42.805,6.029,0.013,-0.005,0.009,102.0,110.0,100.0,13.4,1505.3,326.0,-0.7,1.9,2470.393,13.33,0.013,111.0
2020-10-07T06:37:03,42.805,6.029,0.045,-0.011,-0.01,101.0,110.0,99.0,13.4,1505.3,328.4,-0.7,1.8,2470.364,13.33,0.046,103.7
2020-10-07T06:40:03,42.805,6.029,0.01,-0.012,0.018,102.0,108.0,100.0,13.4,1505.3,324.0,-0.7,1.8,2470.406,13.33,0.015,140.2
2020-10-07T06:43:03,42.805,6.029,0.027,-0.009,-0.023,104.0,110.0,99.0,13.4,1505.3,324.6,-0.7,1.8,2470.395,13.33,0.028,108.4
2020-10-07T06:46:03,42.805,6.029,-0.007,-0.018,-0.005,102.0,108.0,100.0,13.4,1505.3,323.6,-0.7,1.8,2470.4,13.33,0.019,201.2
2020-10-07T06:49:03,42.805,6.029,0.028,-0.011,0.01,102.0,108.0,100.0,13.4,1505.3,325.6,-0.7,1.9,2470.414,13.33,0.03,111.4
2020-10-07T06:52:03,42.805,6.029,0.004,-0.007,0.032,102.0,109.0,100.0,13.3,1505.3,324.7,-0.8,1.8,2470.379,13.33,0.008,150.3
2020-10-07T06:55:03,42.805,6.029,0.042,-0.012,0.034,102.0,108.0,100.0,13.4,1505.3,327.7,-0.7,1.9,2470.413,13.33,0.043,105.9
2020-10-07T06:58:03,42.805,6.029,0.056,0.001,0.068,101.0,107.0,100.0,13.4,1505.3,323.9,-0.7,1.8,2470.411,13.33,0.056,89.0
2020-10-07T07:04:03,42.805,6.029,0.005,-0.007,-0.006,103.0,109.0,101.0,13.4,1505.3,326.0,-0.7,1.8,2470.447,13.31,0.008,144.5
2020-10-07T07:07:03,42.805,6.029,0.026,-0.017,0.015,102.0,109.0,99.0,13.4,1505.3,324.7,-0.7,1.8,2470.449,13.31,0.031,123.2
2020-10-07T07:10:03,42.805,6.029,-0.004,-0.019,-0.004,102.0,108.0,100.0,13.3,1505.3,324.2,-0.7,1.8,2470.45,13.32,0.019,191.9
2020-10-07T07:13:03,42.805,6.029,0.011,-0.007,0.044,102.0,108.0,100.0,13.4,1505.3,324.2,-0.7,1.8,2470.453,13.32,0.013,122.5
2020-10-07T07:16:03,42.805,6.029,0.023,-0.016,-0.014,102.0,108.0,100.0,13.3,1505.3,326.6,-0.7,1.8,2470.464,13.32,0.028,124.8
2020-10-07T07:19:03,42.805,6.029,-0.012,-0.028,-0.022,101.0,108.0,101.0,13.4,1505.3,324.9,-0.7,1.8,2470.421,13.32,0.03,203.2
2020-10-07T07:22:03,42.805,6.029,0.021,0.005,0.037,101.0,107.0,101.0,13.4,1505.3,323.8,-0.7,1.8,2470.44,13.32,0.021,76.6
2020-10-07T07:25:03,42.805,6.029,0.044,-0.007,0.037,102.0,108.0,101.0,13.4,1505.3,324.6,-0.7,1.8,2470.408,13.33,0.044,99.0
2020-10-07T07:28:03,42.805,6.029,0.051,-0.031,0.068,101.0,109.0,100.0,13.3,1505.3,326.6,-0.7,1.8,2470.424,13.33,0.059,121.3
2020-10-07T07:31:03,42.805,6.029,0.03,-0.027,0.034,100.0,108.0,101.0,13.3,1505.3,325.2,-0.7,1.8,2470.477,13.33,0.04,132.0
2020-10-07T07:34:03,42.805,6.029,0.029,-0.031,0.048,103.0,106.0,100.0,13.3,1505.3,326.6,-0.7,1.8,2470.451,13.33,0.042,136.9
2020-10-07T07:37:03,42.805,6.029,0.029,-0.021,0.049,102.0,105.0,100.0,13.4,1505.3,326.2,-0.7,1.8,2470.452,13.33,0.035,125.9
2020-10-07T07:40:03,42.805,6.029,0.034,-0.029,0.046,102.0,107.0,101.0,13.3,1505.3,328.2,-0.7,1.9,2470.436,13.33,0.044,130.5
2020-10-07T07:43:03,42.805,6.029,0.014,-0.035,0.014,102.0,107.0,101.0,13.4,1505.3,324.0,-0.7,1.8,2470.416,13.33,0.037,158.2
2020-10-07T07:46:03,42.805,6.029,0.037,-0.005,0.05,103.0,106.0,101.0,13.4,1505.3,325.4,-0.7,1.8,2470.48,13.33,0.037,97.7
2020-10-07T07:49:03,42.805,6.029,0.009,-0.007,0.018,100.0,106.0,102.0,13.4,1505.3,323.4,-0.7,1.8,2470.471,13.33,0.011,127.9
2020-10-07T07:52:03,42.805,6.029,0.029,-0.02,0.048,101.0,108.0,102.0,13.4,1505.3,326.9,-0.7,1.8,2470.457,13.33,0.035,124.6
2020-10-07T07:55:03,42.805,6.029,0.03,-0.02,0.069,102.0,106.0,102.0,13.4,1505.3,324.1,-0.7,1.8,2470.441,13.33,0.036,123.7
2020-10-07T07:58:03,42.805,6.029,0.009,-0.016,0.014,101.0,108.0,100.0,13.4,1505.3,327.8,-0.7,1.8,2470.472,13.33,0.018,150.6
2020-10-07T08:04:03,42.805,6.029,0.024,-0.009,0.019,102.0,108.0,101.0,13.3,1505.3,324.9,-0.7,1.8,2470.541,13.31,0.025,110.6
2020-10-07T08:07:03,42.805,6.029,0.032,-0.027,0.029,102.0,107.0,101.0,13.3,1505.3,325.8,-0.7,1.8,2470.464,13.32,0.041,130.2
2020-10-07T08:10:03,42.805,6.029,0.004,-0.008,0.026,102.0,108.0,102.0,13.3,1505.3,327.9,-0.7,1.8,2470.479,13.32,0.008,153.4
2020-10-07T08:13:03,42.805,6.029,0.008,-0.005,0.028,103.0,109.0,101.0,13.3,1505.3,322.5,-0.7,1.8,2470.493,13.32,0.009,122.0
2020-10-07T08:16:03,42.805,6.029,0.038,-0.021,0.037,101.0,106.0,102.0,13.4,1505.3,324.6,-0.7,1.8,2470.461,13.32,0.043,118.9
2020-10-07T08:19:03,42.805,6.029,0.024,-0.004,0.043,102.0,108.0,101.0,13.3,1505.3,324.4,-0.7,1.8,2470.504,13.33,0.024,99.5
2020-10-07T08:22:03,42.805,6.029,0.0,-0.002,0.021,102.0,108.0,102.0,13.4,1505.3,327.9,-0.7,1.8,2470.472,13.33,0.002,180.0
2020-10-07T08:25:03,42.805,6.029,0.054,-0.001,0.037,102.0,107.0,101.0,13.4,1505.3,323.4,-0.7,1.8,2470.494,13.33,0.054,91.1
2020-10-07T08:28:03,42.805,6.029,-0.001,0.0,0.044,102.0,108.0,101.0,13.4,1505.3,322.8,-0.7,1.8,2470.514,13.33,0.001,270.0
2020-10-07T08:31:03,42.805,6.029,0.009,-0.007,0.05,103.0,107.0,102.0,13.3,1505.3,326.5,-0.7,1.8,2470.454,13.33,0.011,127.9
2020-10-07T08:34:03,42.805,6.029,0.003,0.0,0.021,101.0,109.0,102.0,13.4,1505.3,324.2,-0.7,1.8,2470.503,13.33,0.003,90.0
2020-10-07T08:37:03,42.805,6.029,0.032,0.002,0.053,102.0,108.0,102.0,13.4,1505.3,326.5,-0.7,1.9,2470.498,13.33,0.032,86.4
2020-10-07T08:40:03,42.805,6.029,0.049,-0.009,0.031,102.0,108.0,102.0,13.4,1505.3,327.6,-0.7,1.8,2470.448,13.33,0.049,100.4
2020-10-07T08:43:03,42.805,6.029,0.035,-0.014,0.042,104.0,108.0,101.0,13.4,1505.3,324.9,-0.7,1.8,2470.488,13.33,0.037,111.8
2020-10-07T08:46:03,42.805,6.029,0.025,0.0,0.009,103.0,107.0,101.0,13.3,1505.3,327.2,-0.7,1.8,2470.481,13.33,0.025,90.0
2020-10-07T08:49:03,42.805,6.029,0.022,-0.008,0.035,101.0,109.0,102.0,13.4,1505.3,325.4,-0.7,1.8,2470.491,13.33,0.023,110.0
2020-10-07T08:52:03,42.805,6.029,0.026,0.009,0.059,102.0,110.0,101.0,13.4,1505.3,325.2,-0.7,1.8,2470.469,13.33,0.027,70.9
2020-10-07T08:55:03,42.805,6.029,0.029,-0.017,0.007,101.0,109.0,101.0,13.3,1505.3,324.8,-0.7,1.8,2470.508,13.33,0.033,120.4
2020-10-07T08:58:03,42.805,6.029,0.008,-0.006,0.019,103.0,108.0,102.0,13.4,1505.3,324.3,-0.7,1.8,2470.464,13.33,0.01,126.9
2020-10-07T09:04:03,42.805,6.029,0.014,-0.02,0.044,102.0,107.0,100.0,13.4,1505.3,325.4,-0.8,1.8,2470.525,13.31,0.024,145.0
2020-10-07T09:07:03,42.805,6.029,0.068,-0.024,0.022,102.0,109.0,101.0,13.4,1505.3,326.8,-0.8,1.8,2470.496,13.31,0.072,109.4
2020-10-07T09:10:03,42.805,6.029,0.066,0.002,0.079,102.0,110.0,101.0,13.4,1505.3,326.4,-0.7,1.8,2470.509,13.32,0.066,88.3
2020-10-07T09:13:03,42.805,6.029,0.05,-0.014,0.039,102.0,109.0,100.0,13.3,1505.3,326.0,-0.7,1.9,2470.486,13.32,0.051,105.6
2020-10-07T09:16:03,42.805,6.029,0.028,0.0,0.058,103.0,107.0,101.0,13.4,1505.3,325.7,-0.7,1.8,2470.529,13.32,0.028,90.0
2020-10-07T09:19:03,42.805,6.029,-0.008,-0.032,-0.015,102.0,108.0,102.0,13.4,1505.3,324.7,-0.7,1.8,2470.484,13.32,0.032,194.0
2020-10-07T09:22:03,42.805,6.029,0.006,-0.012,-0.008,103.0,107.0,102.0,13.4,1505.3,324.5,-0.7,1.8,2470.516,13.32,0.013,153.4
2020-10-07T09:25:03,42.805,6.029,0.013,-0.018,-0.009,102.0,108.0,100.0,13.3,1505.3,327.4,-0.7,1.8,2470.499,13.33,0.022,144.2
2020-10-07T09:28:03,42.805,6.029,0.024,-0.018,0.024,102.0,106.0,100.0,13.4,1505.3,326.1,-0.7,1.8,2470.508,13.33,0.03,126.9
2020-10-07T09:31:03,42.805,6.029,0.014,-0.02,0.004,102.0,107.0,100.0,13.4,1505.3,323.2,-0.7,1.8,2470.474,13.33,0.024,145.0
2020-10-07T09:34:03,42.805,6.029,-0.016,-0.028,-0.05,101.0,106.0,100.0,13.4,1505.3,325.5,-0.7,1.8,2470.501,13.33,0.032,209.7
2020-10-07T09:37:03,42.805,6.029,0.008,-0.013,-0.002,101.0,108.0,100.0,13.4,1505.3,324.7,-0.7,1.8,2470.518,13.33,0.015,148.4
2020-10-07T09:40:03,42.805,6.029,0.025,-0.023,0.016,101.0,108.0,100.0,13.4,1505.3,327.6,-0.7,1.8,2470.504,13.33,0.033,132.6
2020-10-07T09:43:03,42.805,6.029,0.042,-0.02,0.052,103.0,107.0,101.0,13.3,1505.3,324.0,-0.7,1.8,2470.505,13.33,0.046,115.5
2020-10-07T09:46:03,42.805,6.029,0.02,-0.017,0.044,102.0,107.0,100.0,13.4,1505.3,324.1,-0.7,1.8,2470.526,13.33,0.026,130.4
2020-10-07T09:49:03,42.805,6.029,0.022,-0.009,0.042,103.0,108.0,100.0,13.3,1505.3,323.8,-0.7,1.8,2470.47,13.33,0.023,112.2
2020-10-07T09:52:03,42.805,6.029,0.028,-0.011,0.009,102.0,107.0,101.0,13.3,1505.3,328.5,-0.7,1.8,2470.511,13.33,0.03,111.4
2020-10-07T09:55:03,42.805,6.029,0.053,-0.005,0.048,103.0,106.0,100.0,13.4,1505.3,326.4,-0.7,1.8,2470.524,13.33,0.053,95.4
2020-10-07T09:58:03,42.805,6.029,0.048,-0.017,0.017,102.0,108.0,100.0,13.3,1505.3,322.8,-0.7,1.8,2470.498,13.33,0.05,109.5
2020-10-07T10:04:03,42.805,6.029,0.078,0.004,0.061,102.0,106.0,101.0,13.4,1505.3,325.2,-0.7,1.8,2470.559,13.31,0.078,87.1
2020-10-07T10:07:03,42.805,6.029,0.023,-0.005,0.003,102.0,105.0,101.0,13.3,1505.3,325.6,-0.7,1.8,2470.541,13.31,0.023,102.3
2020-10-07T10:10:03,42.805,6.029,-0.009,0.003,0.001,103.0,106.0,100.0,13.3,1505.3,326.9,-0.7,1.9,2470.548,13.32,0.009,288.4